TimeMST,TemperatureF,Dew PointF,Humidity,Sea Level PressureIn,VisibilityMPH,Wind Direction,Wind SpeedMPH,Gust SpeedMPH,PrecipitationIn,Events,Conditions,WindDirDegrees,DateUTC
12:53 AM,10.9,3.0,70,30.45,10.0,SSE,9.2,-,N/A,,Clear,150,2013-01-21 07:53:00
1:53 AM,12.0,3.9,70,30.45,10.0,South,8.1,-,N/A,,Clear,170,2013-01-21 08:53:00
2:53 AM,7.0,1.9,80,30.48,10.0,SSE,8.1,-,N/A,,Clear,160,2013-01-21 09:53:00
3:53 AM,8.1,1.9,76,30.46,10.0,SSE,9.2,-,N/A,,Clear,160,2013-01-21 10:53:00
5:53 AM,8.1,1.0,73,30.51,10.0,SSE,8.1,-,N/A,,Clear,160,2013-01-21 12:53:00
6:53 AM,7.0,1.0,77,30.55,10.0,SSE,9.2,-,N/A,,Clear,160,2013-01-21 13:53:00
7:53 AM,8.1,1.0,73,30.58,10.0,SSE,10.4,-,N/A,,Clear,160,2013-01-21 14:53:00
8:53 AM,14.0,5.0,67,30.57,10.0,South,5.8,-,N/A,,Clear,170,2013-01-21 15:53:00
9:53 AM,21.9,9.0,58,30.55,10.0,South,5.8,-,N/A,,Clear,190,2013-01-21 16:53:00
10:53 AM,26.1,10.9,53,30.54,10.0,NW,3.5,-,N/A,,Clear,310,2013-01-21 17:53:00
11:53 AM,30.0,10.9,45,30.50,10.0,Calm,Calm,-,N/A,,Clear,0,2013-01-21 18:53:00
12:53 PM,30.9,12.9,47,30.45,10.0,Calm,Calm,-,N/A,,Clear,0,2013-01-21 19:53:00
1:53 PM,37.0,14.0,39,30.39,10.0,Calm,Calm,-,N/A,,Clear,0,2013-01-21 20:53:00
2:53 PM,36.0,15.1,43,30.40,10.0,West,4.6,-,N/A,,Clear,270,2013-01-21 21:53:00
3:53 PM,35.1,17.1,48,30.40,10.0,North,3.5,-,N/A,,Clear,360,2013-01-21 22:53:00
4:53 PM,34.0,15.1,46,30.40,10.0,NE,3.5,-,N/A,,Clear,50,2013-01-21 23:53:00
5:53 PM,30.0,15.1,54,30.43,10.0,Calm,Calm,-,N/A,,Clear,0,2013-01-22 00:53:00
6:53 PM,21.0,14.0,74,30.49,10.0,SE,6.9,-,N/A,,Clear,130,2013-01-22 01:53:00
7:53 PM,17.1,10.9,77,30.50,10.0,ESE,5.8,-,N/A,,Clear,120,2013-01-22 02:53:00
8:53 PM,17.1,9.0,71,30.48,10.0,South,6.9,-,N/A,,Clear,180,2013-01-22 03:53:00
9:53 PM,14.0,9.0,80,30.47,10.0,SSE,3.5,-,N/A,,Clear,150,2013-01-22 04:53:00
10:53 PM,10.9,3.9,73,30.48,10.0,SSE,6.9,-,N/A,,Clear,160,2013-01-22 05:53:00
11:53 PM,14.0,7.0,74,30.47,10.0,SSE,4.6,-,N/A,,Clear,160,2013-01-22 06:53:00